User: anonymous   Login
Location: Arboyeti
(42.1122°N, 44.6017°E)
Time: 23:43:11
(UTC+00:00)
Language:

Cosmos 1627 Rocket - Orbit

View from above orbital plane
View from above orbital plane
View from above satellite
View from above satellite

Ground track
Ground track

The orbit data is extracted from the following two-line orbital elements,

1 15506U 85011B   21172.56961589  .00000001  00000-0 -14020-4 0  9997
2 15506  82.9196 290.4420 0035008 271.2152  98.9229 13.76214843826689
Epoch (UTC): 21 June 2021 13:40:14
Eccentricity: 0.0035008
inclination: 82.9196°
perigee height: 951 km
apogee height: 1003 km
right ascension of ascending node: 290.4420°
argument of perigee: 271.2152°
revolutions per day: 13.76214843
mean anomaly at epoch: 98.9229°
orbit number at epoch: 82668

The dashed part of the orbit path shows where the satellite is in the earth's shadow,  

DLR